Weather History for KPHP - November, 2011

Change the Weather History Date:

Friday, November 4, 2011

  Actual Average Record
Temperature  
Mean Temperature 48 °F 40 °F  
Max Temperature 61 °F 53 °F 79 °F (1975)
Min Temperature 34 °F 26 °F 2 °F (1991)
Degree Days  
Heating Degree Days 17 25  
Month to date heating degree days 98 98  
Since 1 July heating degree days 641 801  
Cooling Degree Days 0 0  
Month to date cooling degree days 0 0  
Year to date cooling degree days 837 818  
Moisture  
Dew Point 27 °F    
Average Humidity 46    
Maximum Humidity 64    
Minimum Humidity 27    
Precipitation  
Precipitation 0.00 in 0.03 in 0.19 in (1998)
Month to date precipitation T 0.12  
Year to date precipitation 15.35 16.42  
Sea Level Pressure  
Sea Level Pressure 29.75 in    
Wind  
Wind Speed 12 mph (South)    
Max Wind Speed 21 mph    
Max Gust Speed 24 mph    
Visibility 10 miles    
Events      
T = Trace of Precipitation, MM = Missing Value Source: NWS Daily Summary

Daily Weather History Graph

Daily Weather History Graph

Search for Another Location

Airport or City:

Trip Planner

Search our weather history database for the weather conditions in past years. The results will help you decide how hot, cold, wet, or windy it might be!

Date:

Astronomy

Nov. 04, 2011 Rise Set
Actual Time 7:26 AM MDT 5:32 PM MDT
Civil Twilight 6:56 AM MDT 6:02 PM MDT
Nautical Twilight 6:22 AM MDT 6:37 PM MDT
Astronomical Twilight 5:48 AM MDT 7:10 PM MDT
Moon 2:35 PM MDT (11/4) 1:29 AM MDT (11/4)
Length of Visible Light 11h 06m
Length of Day
10h 06m
Waxing Gibbous, 70% of the Moon is Illuminated
Nov 4
Waxing Gibbous
Nov 10
Full
Nov 18
Last Quarter
Nov 24
New
Dec 2
First Quarter

Hourly Weather History & Observations

Time (MDT) Temp. Windchill Dew Point Humidity Pressure Visibility Wind Dir Wind Speed Gust Speed Precip Events Conditions
12:55 AM 37.0 °F 29.3 °F 23.0 °F 57% 29.87 in 10.0 mi South 11.5 mph - N/A   Clear
1:55 AM 37.9 °F 31.5 °F 24.1 °F 57% 29.86 in 10.0 mi SSE 9.2 mph - N/A   Clear
2:55 AM 37.0 °F 29.3 °F 25.0 °F 62% 29.85 in 10.0 mi South 11.5 mph - N/A   Clear
3:55 AM 37.9 °F 30.9 °F 25.0 °F 60% 29.83 in 10.0 mi South 10.4 mph - N/A   Clear
4:55 AM 39.0 °F 32.3 °F 24.1 °F 55% 29.83 in 10.0 mi South 10.4 mph - N/A   Clear
5:55 AM 37.0 °F 29.8 °F 24.1 °F 59% 29.83 in 10.0 mi South 10.4 mph - N/A   Clear
6:55 AM 37.0 °F 28.5 °F 24.1 °F 59% 29.83 in 10.0 mi South 13.8 mph - N/A   Clear
7:55 AM 36.0 °F 28.0 °F 24.1 °F 62% 29.84 in 10.0 mi South 11.5 mph - N/A   Clear
8:55 AM 39.9 °F 31.4 °F 25.0 °F 55% 29.83 in 10.0 mi South 16.1 mph - N/A   Clear
9:55 AM 43.0 °F 35.4 °F 25.0 °F 49% 29.81 in 10.0 mi South 16.1 mph - N/A   Clear
10:55 AM 46.9 °F - 26.1 °F 44% 29.79 in 10.0 mi SSW 16.1 mph - N/A   Clear
11:55 AM 51.1 °F - 26.1 °F 38% 29.76 in 10.0 mi South 13.8 mph 23.0 mph N/A   Clear
12:55 PM 57.0 °F - 26.1 °F 30% 29.72 in 10.0 mi South 13.8 mph - N/A   Clear
1:55 PM 60.1 °F - 26.1 °F 27% 29.69 in 10.0 mi South 15.0 mph - N/A   Clear
2:55 PM 61.0 °F - 27.0 °F 27% 29.67 in 10.0 mi South 15.0 mph - N/A   Clear
3:55 PM 60.1 °F - 28.0 °F 30% 29.66 in 10.0 mi South 15.0 mph - N/A   Clear
4:55 PM 57.0 °F - 28.9 °F 34% 29.67 in 10.0 mi South 16.1 mph - N/A   Clear
5:55 PM 52.0 °F - 28.9 °F 41% 29.66 in 10.0 mi SSE 11.5 mph - N/A   Clear
6:55 PM 48.9 °F - 28.9 °F 46% 29.66 in 10.0 mi South 6.9 mph - N/A   Clear
7:55 PM 48.0 °F - 30.0 °F 50% 29.68 in 10.0 mi SSW 11.5 mph - N/A   Clear
8:55 PM 46.9 °F - 30.0 °F 52% 29.66 in 10.0 mi SSE 10.4 mph - N/A   Clear
9:55 PM 45.0 °F 40.1 °F 30.0 °F 56% 29.66 in 10.0 mi South 9.2 mph - N/A   Clear
10:55 PM 45.0 °F 41.2 °F 28.9 °F 53% 29.64 in 10.0 mi SE 6.9 mph - N/A   Clear
11:55 PM 41.0 °F 38.0 °F 28.9 °F 62% 29.61 in 10.0 mi SE 4.6 mph - N/A   Clear